Lapse_Rate
5.6 6.5 6.5 6.5 6.5 6.5 6.5 6.5 6.5 6.5 6.5 6.5 6.5 6.5 6.5 5.5 5.1 4.2 3.3 3.3 2.8 2.5 2.7 3.5 3.7 3.7 1.9 2.4 2.2 1.7 1.4 0.8 1.7 2.0 2.0 2.1 1.8 1.2 -0.7 -1.1 -0.2 0.5 1.6 2.1
6.5 6.5 6.5 6.5 6.5 6.5 6.5 6.5 6.5 6.5 6.5 6.5 6.5 6.5 6.5 6.5 5.8 5.0 4.0 3.9 2.6 2.6 3.6 3.0 2.5 3.8 2.2 2.5 2.1 1.6 1.3 1.1 1.3 1.5 2.2 2.8 2.1 2.1 0.9 0.8 0.6 1.1 1.7 2.1
6.5 6.5 6.5 6.5 6.5 6.5 6.5 6.5 6.5 6.5 6.5 6.5 6.5 6.5 6.5 6.4 5.5 6.0 6.1 4.5 4.8 3.3 2.7 2.3 2.8 3.0 1.8 2.1 1.9 1.4 1.2 1.5 1.6 1.9 1.9 2.2 2.3 2.3 1.5 0.8 -0.0 1.0 2.1 1.9
6.5 6.4 6.5 6.5 6.5 6.5 6.5 6.5 6.5 6.5 6.5 6.5 6.5 6.5 6.5 6.5 6.5 6.5 6.4 6.1 5.6 5.9 3.9 2.5 2.5 1.9 1.9 2.2 2.5 2.3 2.2 2.6 2.6 2.6 3.0 2.7 1.2 1.9 1.1 0.6 0.7 0.9 2.3 1.9
6.5 6.5 6.5 6.5 6.5 6.5 6.5 6.5 6.5 6.5 6.5 6.5 6.5 6.5 6.5 6.5 6.5 6.5 6.5 6.4 5.5 5.0 5.3 4.3 4.2 2.6 0.6 1.6 1.2 2.5 2.7 3.0 2.9 3.3 3.2 3.6 2.9 2.5 1.6 1.0 1.4 1.2 1.6 2.7
6.5 5.9 6.5 6.5 6.5 6.5 6.5 6.5 6.5 6.5 6.5 6.5 6.5 6.5 6.5 6.5 6.5 6.5 6.4 6.3 5.4 5.0 5.1 5.4 3.7 2.9 1.7 1.6 2.4 3.0 3.4 3.2 3.3 3.5 2.9 3.1 3.1 3.0 2.0 1.0 1.4 1.0 1.2 1.3
6.5 6.5 6.5 6.4 6.5 6.5 6.5 6.5 6.5 6.5 6.5 6.5 6.5 6.5 6.5 6.5 6.5 6.5 6.4 5.1 4.9 4.8 5.2 5.3 4.7 3.6 2.2 2.0 2.3 2.4 3.0 3.5 3.7 3.3 3.2 3.3 3.5 2.5 3.0 2.3 1.9 1.2 0.7 0.8
6.5 6.5 6.5 6.5 6.5 6.5 6.5 6.5 6.5 6.5 6.5 6.5 6.5 6.5 6.5 6.5 6.2 5.6 5.2 4.4 4.6 4.7 5.1 5.2 5.2 4.4 3.2 2.6 1.5 2.0 3.1 4.1 3.6 3.2 3.6 3.7 4.1 3.3 3.4 3.2 2.7 2.0 1.2 1.1
6.5 6.5 6.5 6.5 6.5 6.5 6.5 6.5 6.5 6.5 6.5 6.5 6.5 6.5 6.5 6.5 6.5 6.2 6.0 5.0 4.4 3.2 3.1 4.4 5.7 5.4 4.6 3.4 2.7 2.0 2.5 3.4 3.8 3.1 3.2 4.0 4.1 4.1 3.7 3.7 3.0 3.0 2.3 3.4
6.5 6.5 6.5 6.5 6.4 6.5 6.5 6.5 6.5 6.5 6.5 6.5 6.5 6.5 6.5 6.5 6.5 6.5 6.4 5.4 4.4 4.3 3.9 3.7 3.7 5.0 5.6 4.6 3.2 2.1 2.7 3.4 3.9 3.5 3.3 4.0 4.3 4.5 4.6 4.2 2.9 3.6 3.8 3.9
6.5 6.5 6.5 6.5 6.5 6.5 6.5 6.5 6.5 6.5 6.5 6.5 6.5 6.5 6.5 6.5 6.5 6.5 6.3 5.5 5.1 4.9 4.3 4.0 4.3 3.7 4.4 4.7 3.1 2.1 2.7 2.8 2.5 2.9 3.5 3.5 3.9 3.8 3.2 3.7 3.4 3.3 3.5 4.2
6.5 6.5 6.5 6.5 6.5 6.5 6.5 6.5 6.5 6.5 6.5 6.5 6.5 6.5 6.5 6.5 6.5 6.4 6.2 6.3 5.6 5.2 4.2 4.1 4.5 4.3 3.6 4.0 2.9 2.3 2.3 2.7 2.3 2.0 2.3 2.8 2.9 3.2 3.0 2.7 3.1 2.6 3.1 3.4
6.5 6.5 6.5 6.5 6.5 6.5 6.5 6.5 6.5 6.5 6.5 6.5 6.5 6.5 6.5 6.3 6.3 5.6 6.0 6.1 5.0 6.1 5.0 4.0 3.7 3.9 3.8 3.4 4.1 3.6 3.2 3.0 2.6 2.8 2.8 2.7 3.1 3.1 2.5 2.6 3.0 3.1 3.5 2.9
6.2 6.5 6.5 6.5 6.5 6.5 6.5 6.5 6.5 6.5 6.5 6.5 6.5 6.5 6.5 6.5 6.5 5.8 5.6 5.8 5.1 4.6 4.8 3.4 3.7 3.8 4.2 3.9 3.9 4.3 3.3 3.8 4.1 4.2 3.8 3.4 3.1 2.2 2.1 2.4 3.2 3.1 3.5 3.8
6.5 6.5 6.5 6.5 6.5 6.5 6.5 6.5 6.5 6.5 6.5 6.5 6.5 6.5 6.5 6.5 6.5 5.6 5.2 5.1 5.3 5.1 5.1 4.8 4.3 3.9 4.0 4.1 4.0 4.3 4.3 3.6 4.3 4.8 4.2 4.0 3.4 3.0 2.7 3.0 3.6 3.9 4.3 3.7
6.5 6.5 6.5 6.5 6.5 6.5 6.5 6.5 6.5 6.5 6.5 6.5 6.5 6.5 6.5 5.9 6.0 6.0 6.1 5.7 5.0 5.9 5.7 5.3 5.3 4.9 4.6 4.5 4.2 4.6 4.6 4.0 3.3 4.7 4.7 3.5 3.2 3.4 3.0 3.5 4.1 4.0 3.5 3.5
6.5 6.5 6.5 6.5 6.5 6.5 6.5 6.5 6.5 6.5 6.5 6.5 6.5 6.5 6.5 6.5 6.4 6.0 6.0 5.8 5.6 5.6 5.2 4.6 4.1 3.9 4.6 5.1 3.6 3.8 3.5 3.1 3.6 3.8 3.4 3.1 2.8 3.1 3.4 3.2 2.9 2.3 2.6 3.4
6.5 6.5 6.5 6.5 6.5 6.5 6.5 6.5 6.5 6.5 6.5 6.5 6.5 6.5 6.3 6.3 5.5 5.3 4.9 5.1 5.5 5.5 4.9 4.0 2.7 2.6 2.6 2.7 2.9 3.4 3.7 3.4 2.2 2.3 2.3 1.8 1.6 1.7 1.7 2.2 2.5 2.7 2.9 3.3
6.5 6.5 6.5 6.5 6.5 6.5 6.5 6.5 6.5 6.5 6.5 6.5 6.5 6.5 6.4 6.2 5.2 6.0 6.0 5.2 4.2 4.5 4.7 3.7 3.3 1.4 0.8 0.9 2.2 2.2 1.1 1.3 1.4 1.5 1.2 1.3 1.6 1.7 2.7 3.5 3.4 3.2 4.0 4.1
6.5 6.5 6.5 6.5 6.5 6.5 6.5 6.5 6.5 6.4 6.5 6.4 6.2 6.5 6.3 5.7 6.5 6.5 5.2 4.0 3.2 3.4 3.8 3.6 1.0 -0.1 0.6 0.5 0.3 0.5 2.1 1.6 1.3 1.4 1.5 1.7 1.8 2.9 3.8 3.4 3.8 4.2 4.3 4.4
6.5 6.5 6.5 6.5 6.5 6.5 6.5 6.4 6.0 6.5 6.5 6.4 6.0 5.8 6.0 6.5 5.2 5.5 3.6 2.2 2.1 3.2 2.8 4.2 2.0 1.3 -0.2 -0.4 -0.3 1.3 1.6 1.5 1.4 1.9 2.2 2.4 2.7 3.0 2.9 3.0 3.8 4.1 4.0 3.7
6.5 6.5 6.5 6.5 6.5 6.5 6.1 6.4 6.5 6.0 5.2 4.9 5.8 5.7 5.3 5.1 5.6 3.1 2.8 1.5 1.4 1.2 3.6 5.1 2.9 1.6 0.5 0.5 0.7 2.2 1.7 0.9 1.4 2.3 2.8 2.8 2.8 3.0 3.3 3.6 4.0 4.3 4.2 4.1
6.5 6.5 6.5 6.5 6.5 5.7 5.5 5.0 6.2 4.9 5.0 6.2 5.7 5.6 5.8 5.3 3.8 3.8 2.1 0.3 -0.0 1.2 2.9 5.0 2.5 1.6 2.0 3.4 3.8 3.0 1.5 1.4 2.1 2.8 2.8 2.9 3.1 3.4 3.8 3.8 4.3 4.8 4.7 4.6
6.5 6.0 6.5 6.5 6.5 6.4 5.8 5.9 6.2 6.6 5.9 6.5 6.3 6.5 5.8 3.2 1.2 -0.1 0.6 -0.2 0.3 1.3 3.6 5.9 3.6 2.7 2.6 4.1 4.3 2.7 1.4 2.3 2.7 2.7 2.8 3.0 3.5 3.7 4.0 4.5 4.5 4.8 5.0 5.2
6.1 6.3 6.5 6.5 6.5 6.2 5.7 5.5 6.1 6.2 6.4 6.7 6.7 6.6 6.1 4.8 3.7 3.1 2.7 1.1 1.5 1.7 4.1 6.2 5.0 4.9 3.2 3.3 2.7 1.6 1.7 2.5 3.0 3.3 3.2 3.4 4.1 4.1 4.6 5.0 4.9 5.1 5.3 5.4
6.1 6.5 6.5 6.5 6.1 5.6 5.3 5.5 5.9 6.0 6.2 6.5 6.4 6.2 6.5 6.8 6.7 5.5 5.7 4.2 4.8 4.5 5.3 6.1 5.6 4.3 3.1 2.6 2.8 3.2 3.0 3.6 3.5 3.8 4.1 3.6 4.1 4.5 5.0 5.3 5.6 6.1 6.3 7.0
Wind_Speed
8 4 6 14 12 12 11 14 16 15 10 12 10 12 9 8 5 9 9 8 8 10 12 16 15 20 19 18 18 17 14 9 6 3 3 3 2 2 3 6 10 9 5 5
2 8 14 15 15 14 13 14 14 6 10 13 15 19 8 8 9 7 11 13 11 8 7 8 15 20 20 21 19 18 17 16 10 6 3 3 3 2 3 5 5 7 4 4
11 9 16 15 13 12 10 8 6 8 12 7 9 12 7 8 11 11 16 9 6 8 7 8 16 17 18 20 21 19 18 17 13 10 5 4 4 3 3 3 3 1 2 4
8 10 15 13 12 6 6 7 10 11 9 5 7 9 3 9 7 16 16 16 15 19 18 9 10 15 19 17 14 14 14 13 9 8 6 10 5 4 3 3 2 2 2 3
6 4 8 9 7 4 6 5 5 5 4 7 3 5 3 7 4 14 14 14 13 15 14 14 6 7 9 10 11 12 12 11 8 8 8 8 6 4 4 4 7 4 1 2
9 8 4 4 1 4 4 4 6 5 0 6 11 10 6 3 9 12 12 13 13 13 15 20 13 14 11 8 8 8 10 10 8 7 8 9 9 7 6 7 6 4 3 2
13 18 16 9 7 5 5 4 2 2 1 7 2 6 7 10 13 14 12 9 8 8 13 14 12 10 8 9 9 8 8 8 9 8 9 9 9 9 13 11 8 7 4 3
7 4 17 14 20 8 9 7 4 5 4 4 5 5 3 10 11 10 10 8 9 10 8 9 9 7 5 8 8 7 7 6 8 8 8 7 8 7 8 10 8 7 6 5
5 5 3 5 8 15 7 8 8 3 3 3 4 3 3 4 7 6 7 8 7 8 8 10 7 4 3 6 7 9 8 7 7 8 7 7 6 8 8 10 7 7 7 6
2 1 1 3 6 3 2 6 1 3 4 5 4 6 4 6 6 6 9 9 7 5 8 8 8 6 4 4 5 3 4 5 4 5 6 5 5 6 7 7 7 10 10 8
3 3 3 6 3 5 2 4 3 4 5 4 1 3 6 7 6 4 3 0 5 5 6 6 5 6 6 4 5 6 6 7 5 5 4 5 5 5 7 7 8 10 9 10
0 2 4 5 6 7 3 1 6 4 4 3 4 5 11 9 6 1 5 3 3 6 7 7 6 6 7 6 5 7 7 7 7 7 6 5 6 7 8 8 8 8 9 6
2 2 2 6 2 3 2 2 5 5 4 7 2 6 6 11 5 5 4 3 4 2 6 6 6 7 7 7 4 4 4 7 5 6 7 8 7 7 8 10 10 9 9 7
3 2 4 6 4 1 1 6 4 4 1 2 4 9 18 8 9 8 4 2 6 6 7 6 7 7 6 6 5 2 2 3 5 5 7 8 10 12 11 10 11 11 10 10
4 3 3 3 6 6 5 10 8 7 7 5 11 8 22 13 7 7 8 7 7 8 8 8 7 6 6 6 4 4 3 6 6 6 7 9 8 10 11 11 11 11 11 9
2 2 3 4 3 3 10 16 9 11 12 14 13 18 10 13 15 15 13 10 9 2 7 8 7 7 6 5 5 3 3 6 6 6 6 7 10 11 11 10 9 11 9 10
5 4 3 2 4 3 8 11 15 13 14 11 10 14 13 12 14 13 14 13 6 10 7 7 7 6 4 0 3 1 3 4 5 4 6 9 11 11 10 11 11 11 11 10
1 6 3 2 5 1 7 6 7 11 13 13 13 9 8 6 9 8 8 8 9 7 6 5 6 5 4 3 3 1 2 3 3 5 7 8 11 12 11 10 12 12 11 12
3 3 2 4 6 6 14 8 3 2 10 8 4 7 6 9 5 7 11 11 7 6 5 4 3 6 5 6 1 4 3 4 5 5 7 7 8 10 9 10 9 8 8 8
10 6 4 2 5 8 5 4 5 4 7 4 6 5 7 6 4 2 5 6 5 3 2 4 4 7 6 5 3 2 3 4 5 7 8 8 9 10 8 7 8 6 7 9
4 3 10 9 4 6 6 3 9 4 5 7 5 5 5 2 4 3 5 5 6 9 8 4 6 3 3 4 2 2 4 3 6 8 9 9 9 10 10 10 10 9 10 11
7 5 5 2 3 10 6 7 6 5 4 3 3 6 6 6 6 6 8 3 2 9 9 3 4 4 4 2 3 2 4 5 8 9 10 9 10 8 9 12 9 10 11 10
5 5 4 7 7 7 5 7 3 7 5 2 2 6 5 3 5 8 7 6 6 8 5 4 5 6 3 1 3 4 4 8 9 9 9 9 10 9 9 11 10 8 9 8
5 7 7 4 12 4 4 5 4 3 4 2 3 2 5 3 5 7 4 6 4 4 4 2 6 6 2 1 3 4 7 7 9 10 10 8 9 8 8 6 7 6 7 7
5 5 2 7 4 3 10 5 2 4 4 3 5 4 6 2 6 6 6 5 6 7 4 4 5 4 3 2 1 4 7 9 9 8 8 8 6 8 7 6 6 7 5 6
4 8 5 9 3 5 6 6 5 7 6 5 6 4 5 4 6 5 4 4 7 4 3 6 4 5 3 2 2 4 6 8 10 8 6 7 6 6 6 7 6 4 7 13
Wind_Direction
188 174 216 224 223 231 256 266 273 281 296 327 310 299 298 301 340 330 306 264 227 200 205 188 164 150 138 142 140 140 132 138 128 103 106 77 139 108 90 121 130 132 143 115
212 224 226 233 242 250 252 265 275 289 333 319 316 301 295 304 299 286 275 267 228 235 204 175 152 152 150 152 145 144 148 149 150 148 150 145 150 99 115 103 99 130 142 117
215 226 222 227 245 252 267 268 279 304 322 325 327 305 318 325 321 357 4 308 328 244 232 140 154 155 147 151 157 158 157 154 152 158 150 123 86 65 63 54 71 47 159 113
247 230 249 271 252 268 270 288 314 321 295 306 11 296 327 292 306 60 43 41 39 32 33 28 152 146 155 157 144 141 143 149 155 160 151 154 146 149 160 145 129 69 86 78
230 244 246 254 254 259 276 34 338 307 1 327 255 270 128 304 352 72 53 51 38 39 37 30 138 93 68 111 116 129 140 154 165 164 152 148 142 157 142 129 131 124 93 124
250 268 267 238 297 109 61 26 327 309 174 278 240 220 303 306 127 85 73 57 50 41 32 38 76 86 83 82 94 113 142 164 169 155 148 152 154 157 134 146 146 152 158 182
247 246 251 248 260 163 136 109 299 337 165 241 287 242 222 93 82 84 74 54 48 51 53 46 63 99 111 129 150 167 161 158 171 159 157 161 171 158 155 166 161 159 163 164
193 245 208 214 224 192 181 168 170 204 204 265 346 265 119 95 93 95 80 61 41 63 62 65 49 68 160 175 177 170 170 157 158 161 168 166 172 164 165 172 164 165 163 161
219 243 75 88 208 201 184 202 209 357 9 27 224 356 244 109 80 67 68 54 44 69 71 72 58 49 47 219 199 180 178 170 160 168 170 176 176 166 163 174 166 163 145 143
299 332 178 64 50 30 107 147 76 85 200 218 234 207 186 66 64 65 36 3 346 123 87 75 83 65 347 39 199 170 147 154 161 150 170 174 174 164 154 158 141 140 143 137
117 123 288 103 143 180 132 162 188 169 161 183 304 265 169 114 83 339 133 267 352 113 105 105 89 92 74 95 108 113 109 105 94 121 132 133 136 126 121 124 125 128 124 132
161 149 224 228 96 68 51 353 165 143 255 217 151 250 178 142 156 105 33 299 16 154 161 156 155 114 77 52 125 153 165 158 154 143 136 141 131 124 118 119 120 120 126 117
150 207 73 347 59 53 0 346 23 38 18 252 297 267 321 333 26 328 286 33 338 290 172 200 109 89 81 73 94 207 211 185 168 163 156 146 139 128 129 131 127 122 123 115
79 77 142 176 99 111 300 324 312 150 164 312 265 304 299 317 321 313 323 314 297 265 235 104 116 111 113 94 82 37 218 236 204 185 178 169 165 152 145 141 132 126 122 118
96 125 72 63 40 9 316 284 282 281 266 222 270 255 278 297 280 294 298 292 286 280 112 126 133 146 137 122 133 140 197 210 218 195 186 182 144 140 136 140 134 127 122 118
68 142 90 11 78 306 282 275 288 268 264 272 282 279 284 299 302 293 290 282 285 345 128 96 90 102 117 163 184 174 236 236 202 190 192 144 141 141 141 136 124 114 106 103
144 132 103 255 171 241 281 246 252 273 270 260 261 264 278 271 269 278 280 268 96 105 93 83 73 59 27 212 99 33 309 282 233 185 136 142 139 138 135 131 126 131 128 121
143 130 101 168 59 288 242 285 282 267 270 272 280 288 274 346 336 330 32 70 73 68 72 82 85 58 16 26 47 55 344 263 147 127 128 136 141 141 145 141 142 140 142 147
172 114 151 149 196 288 288 277 261 300 299 305 314 13 14 4 8 38 33 50 42 45 49 54 40 71 15 359 136 102 89 101 121 132 130 140 139 133 136 128 134 139 136 119
185 182 150 130 168 211 232 224 294 346 286 19 39 355 359 12 23 285 8 11 355 16 48 44 46 52 35 18 47 123 124 140 133 136 135 131 131 127 131 127 119 116 110 111
178 191 206 222 219 261 250 314 275 186 241 0 338 326 3 280 198 156 65 15 335 325 342 84 78 68 82 45 55 132 113 124 128 128 132 133 129 133 128 119 120 117 112 118
184 174 202 178 161 257 203 248 232 212 198 158 9 339 321 318 169 163 158 154 297 303 299 113 121 62 66 110 122 137 124 132 134 137 135 133 131 131 131 130 132 127 128 125
256 182 206 189 214 218 229 232 170 179 196 171 325 280 308 159 224 199 194 175 176 243 289 212 119 98 63 193 155 164 147 146 141 133 134 137 136 136 139 136 138 134 133 134
278 259 245 230 253 264 299 321 339 270 191 213 251 304 357 253 212 255 231 184 178 238 264 193 135 99 138 176 186 153 151 155 142 139 139 142 138 135 135 134 135 138 141 141
210 307 285 267 297 298 285 269 300 334 320 349 327 313 298 232 255 235 251 220 201 200 222 111 96 111 120 89 115 149 153 145 142 140 139 134 140 137 134 132 142 141 141 155
220 245 236 257 249 244 252 285 324 318 307 307 299 324 352 343 338 217 227 219 241 162 83 84 105 110 125 122 139 135 137 145 138 137 140 136 136 138 134 130 127 143 173 188